Location: Allen Fire Department Station 4
(33.1073°N, 96.6988°W)
Time: 03:30:46
(UTC+00:00)

deb Kosmos-252 - Visible Passes

Search period start: 07 October 2022 00:00
Search period end: 17 October 2022 00:00
Orbit: 759 x 1989 km, 62.3° (Epoch: 05 October)

Date Brightness Start Highest point End Pass type
(mag) Time Alt. Az. Time Alt. Az. Time Alt. Az.
07 Oct ? 00:25:55 10° SW 00:34:31 50° NW 00:41:03 10° NNE visible
08 Oct ? 01:01:12 10° WSW 01:07:56 26° NW 01:13:26 10° N visible
09 Oct ? 01:38:19 10° WNW 01:41:44 13° NW 01:44:51 10° NNW visible
11 Oct ? 00:45:22 10° W 00:50:48 19° NW 00:55:26 10° N visible
14 Oct ? 00:30:04 10° WNW 00:33:45 14° NW 00:37:03 10° NNW visible
